Wind_Speed
5 5 4 4 5 5 6 6 6 6 6 8 8 8 7 7 8 7 8 8 8 7 6 6 5 5 5 5 5 5 5 5 4 4 4 3 3 2 1 1 1 1 0
5 5 4 4 4 5 6 6 6 6 7 7 7 7 7 7 7 7 7 7 7 6 6 6 5 5 5 5 5 6 5 5 5 4 3 2 2 2 2 1 0 0 0
5 5 4 5 5 5 6 6 6 6 7 7 6 6 6 6 6 6 6 6 6 6 6 5 5 5 4 4 4 4 4 5 4 4 3 2 2 2 2 2 1 1 0
5 5 5 5 5 5 5 7 7 7 7 7 6 6 6 6 6 6 6 6 6 5 5 5 4 4 3 3 3 3 4 4 4 3 3 2 3 3 2 1 1 1 1
5 5 4 4 5 5 6 6 7 7 7 6 6 6 6 6 5 6 6 5 5 5 5 4 4 4 3 3 3 3 3 3 3 2 2 2 2 2 2 1 1 1 1
5 5 5 5 5 6 6 6 7 7 7 6 5 5 5 5 5 6 6 6 5 5 5 4 3 3 3 3 2 2 2 2 2 2 2 1 2 1 1 0 1 1 1
7 6 5 5 5 6 7 7 7 7 7 6 5 5 5 4 4 5 5 5 4 4 4 3 3 3 2 2 2 2 2 1 1 1 2 1 1 0 0 0 1 1 1
7 6 6 6 7 7 7 7 7 7 7 7 6 5 5 4 4 4 4 3 3 3 2 2 2 2 2 1 1 1 1 0 0 1 1 1 1 1 1 1 1 2 2
8 7 8 7 8 8 8 8 8 8 8 7 6 5 5 4 4 4 3 2 2 3 2 2 1 1 0 0 0 1 1 2 2 2 2 2 2 1 1 2 2 3 3
9 8 9 9 9 9 9 8 8 8 8 7 6 5 5 4 3 3 3 2 3 3 2 1 1 1 1 1 1 2 2 2 3 2 2 2 2 2 3 3 3 3 4
10 10 10 10 11 10 10 9 9 8 7 7 6 5 4 4 3 2 2 2 3 3 1 1 1 1 0 1 2 2 2 2 3 2 2 2 3 3 3 4 4 4 5
12 12 12 12 12 12 10 9 9 8 7 7 6 5 5 4 3 3 2 2 2 2 2 2 1 0 0 1 1 1 1 1 1 1 2 2 2 3 3 4 5 6 6
13 12 13 13 12 11 10 9 8 8 7 7 6 5 5 5 4 4 3 2 2 2 2 2 1 0 0 1 1 1 1 0 1 1 2 1 2 3 4 5 6 7 7
13 13 13 13 11 11 10 9 9 8 7 7 6 5 4 4 3 3 4 4 3 2 1 1 2 2 2 2 1 1 1 1 1 1 0 0 1 3 4 5 6 7 7
13 13 13 13 12 11 10 9 8 8 7 6 5 4 4 3 3 3 3 3 2 2 2 2 4 3 3 3 2 2 2 2 2 1 1 0 2 4 4 5 6 7 8
14 13 12 12 12 12 12 10 9 9 8 7 6 5 4 4 4 4 3 3 3 2 2 2 3 3 3 3 3 3 3 3 3 2 2 2 3 4 5 6 7 7 7
14 13 13 13 12 12 11 10 10 8 7 7 6 5 4 4 4 5 4 4 4 4 4 3 4 4 3 3 3 3 3 3 3 3 3 3 3 4 5 6 7 7 6
13 13 13 13 12 11 11 10 9 9 8 7 6 6 6 5 5 6 6 6 5 5 5 5 5 5 4 4 4 3 2 3 3 3 3 4 4 5 6 6 7 7 6
13 13 12 12 11 11 10 10 9 9 8 8 8 8 7 6 6 6 7 7 6 6 6 5 5 5 5 4 4 3 2 2 3 3 4 5 5 6 6 7 6 7 7
12 12 11 11 11 10 10 10 10 9 9 8 8 8 7 6 6 6 6 6 6 5 5 5 5 5 5 4 4 4 4 4 4 5 4 5 6 6 7 7 7 7 8
11 11 10 10 10 9 9 9 9 9 9 9 8 7 7 6 6 6 5 6 6 5 5 5 5 5 5 4 3 3 4 4 4 5 5 6 7 7 7 7 8 8 8
10 10 9 9 9 9 8 8 8 9 8 8 8 8 8 7 7 6 6 6 6 5 5 5 5 5 5 5 4 4 4 4 4 5 6 6 7 8 8 8 9 9 9
9 8 9 9 8 8 8 7 7 7 7 7 8 8 7 7 6 6 6 6 6 6 5 5 5 5 5 5 4 4 5 5 5 6 7 7 8 8 9 9 9 9 9
8 8 7 7 8 8 7 7 6 6 6 6 7 7 6 6 5 5 5 5 5 5 4 4 4 5 5 5 4 4 5 6 6 6 7 7 8 8 9 9 9 9 9
7 7 6 6 7 7 7 6 6 5 4 4 5 6 6 5 5 4 4 4 4 4 4 4 5 5 5 5 5 5 5 6 7 7 8 8 8 9 9 9 10 10 10
5 5 5 5 5 6 6 6 5 5 4 4 5 5 5 5 4 3 3 3 3 4 4 4 5 5 5 6 6 6 7 7 8 8 9 10 10 11 10 11 11 11 11
Wind_Direction
82 79 77 102 120 122 124 126 129 140 140 133 132 133 136 139 136 136 137 141 145 148 145 145 137 130 122 113 110 121 128 121 117 123 131 147 154 158 165 175 191 178 55
76 76 80 93 113 128 126 126 130 137 137 139 135 136 139 144 142 137 139 143 144 146 147 144 139 131 121 114 113 119 119 112 113 114 121 131 133 144 147 148 169 125 32
74 76 86 95 102 119 132 131 136 142 142 134 130 134 141 145 142 139 137 139 148 149 146 139 133 132 126 117 114 120 121 121 120 118 122 121 126 137 141 109 92 86 136
77 82 87 96 105 118 126 133 137 141 143 141 132 126 130 136 141 140 141 146 149 150 147 139 133 137 131 121 118 121 122 128 126 126 129 140 146 130 121 87 80 47 340
73 80 90 99 110 119 125 132 139 140 139 136 129 123 126 131 140 143 144 147 149 151 146 137 132 133 132 124 116 119 124 133 142 146 147 155 161 135 112 110 87 8 357
68 80 90 103 116 124 127 128 139 140 135 130 126 119 122 123 133 144 144 147 147 152 143 132 131 130 128 123 120 115 121 142 161 160 177 164 159 149 134 197 268 312 0
69 81 92 105 118 123 126 128 129 136 134 131 125 119 118 118 122 140 146 154 145 143 146 139 136 126 122 121 126 127 123 140 180 203 198 170 164 141 122 296 285 286 304
74 83 92 107 115 121 125 127 125 127 130 131 127 125 122 118 114 115 121 136 148 147 136 138 132 119 112 120 134 123 142 192 234 269 223 218 229 246 243 258 277 267 276
75 87 94 107 113 119 125 125 120 120 122 126 122 117 116 115 112 113 109 130 165 152 125 117 122 132 153 183 271 269 259 256 261 241 244 244 238 245 250 257 265 267 282
77 90 99 108 110 115 123 121 117 117 116 114 112 110 108 108 109 117 117 126 159 149 122 132 186 213 254 277 275 268 262 271 268 255 241 234 245 254 260 270 278 281 285
80 88 97 104 107 110 117 115 113 112 114 111 109 109 107 109 108 113 118 135 150 146 138 152 171 205 246 301 299 292 276 288 284 266 241 256 265 273 275 281 289 289 288
82 88 96 100 102 101 106 109 108 107 109 109 109 105 101 106 104 106 122 141 146 150 165 172 185 141 297 342 340 335 305 282 275 249 263 279 289 292 290 286 286 287 289
80 86 93 96 102 102 102 104 105 105 106 107 107 99 94 94 102 120 136 135 133 135 150 163 136 84 27 33 34 47 57 139 292 271 260 287 301 298 290 291 293 292 293
81 85 88 89 95 99 100 101 103 103 102 103 103 97 91 90 100 131 124 112 114 118 126 75 37 30 46 55 65 65 61 40 360 334 300 292 331 319 309 301 297 295 293
80 85 90 90 89 89 90 89 91 97 94 93 91 91 91 98 101 100 118 116 104 75 53 41 32 38 39 50 47 46 51 60 56 66 48 16 329 331 325 316 307 301 293
78 81 85 89 88 87 84 81 83 86 82 77 69 68 78 82 92 92 96 89 89 72 60 59 46 41 42 52 52 61 73 68 60 55 40 10 339 332 328 324 320 314 297
76 78 81 83 83 83 83 83 82 81 78 74 67 65 67 72 91 95 87 83 83 84 80 74 66 67 69 63 61 70 75 80 62 48 36 13 348 337 333 332 332 326 312
74 76 78 78 78 79 78 75 72 70 69 73 72 73 73 73 79 85 89 84 78 80 83 80 72 73 69 65 62 63 67 68 51 37 17 3 346 339 339 338 339 338 330
73 73 75 76 75 75 72 68 67 68 69 73 75 78 76 75 77 81 90 85 78 75 78 77 74 67 61 62 64 60 51 41 24 18 10 360 349 345 346 341 341 344 345
71 70 70 71 70 70 69 66 63 62 64 70 70 71 72 73 77 79 83 82 73 69 68 67 64 61 56 58 65 56 45 28 19 11 359 351 347 344 346 344 342 343 343
68 66 65 64 64 64 65 63 61 59 61 65 66 68 68 70 70 68 67 69 68 67 63 58 56 51 49 44 44 38 33 23 14 8 0 354 352 345 340 339 340 340 339
66 65 62 60 59 60 62 63 61 59 63 66 63 59 60 63 65 66 63 66 68 67 62 58 55 47 41 37 33 31 25 18 7 1 360 357 351 348 349 345 341 339 336
62 63 64 63 63 61 63 62 61 62 64 63 58 53 52 57 65 68 63 64 68 63 59 57 49 38 32 26 21 14 11 8 3 358 357 353 349 347 345 343 341 337 335
60 59 58 61 63 61 59 55 53 56 58 57 50 46 47 50 58 60 58 64 61 55 51 45 35 26 21 16 12 5 2 359 357 360 358 354 350 346 343 342 341 340 339
53 53 51 55 52 52 50 48 48 49 52 53 47 44 43 41 48 53 50 61 56 40 31 25 18 17 14 10 6 1 353 349 348 351 352 348 348 345 343 340 338 336 337
47 50 53 44 38 41 38 43 42 41 45 49 48 43 33 28 32 42 48 47 33 19 13 7 3 2 3 2 357 353 351 348 346 342 343 344 343 342 339 338 336 335 332
Height
5878 5878 5878 5877 5878 5878 5879 5880 5880 5881 5881 5882 5883 5884 5885 5886 5887 5887 5888 5889 5889 5890 5890 5890 5891 5891 5891 5890 5889 5888 5889 5890 5891 5891 5891 5891 5891 5891 5890 5891 5890 5890 5890
5878 5878 5878 5878 5878 5879 5880 5880 5881 5882 5883 5883 5884 5885 5886 5887 5887 5888 5889 5890 5890 5890 5891 5891 5891 5891 5891 5891 5890 5890 5891 5891 5891 5891 5891 5891 5891 5891 5890 5890 5890 5890 5890
5879 5879 5879 5879 5879 5880 5880 5881 5882 5883 5884 5884 5885 5886 5887 5887 5888 5889 5890 5890 5891 5891 5891 5892 5892 5892 5892 5892 5892 5891 5892 5892 5892 5892 5892 5891 5891 5891 5890 5890 5890 5890 5890
5879 5879 5879 5880 5880 5881 5881 5882 5883 5884 5885 5886 5886 5887 5887 5888 5889 5890 5890 5891 5892 5892 5892 5892 5892 5893 5893 5892 5892 5892 5892 5892 5892 5892 5892 5891 5891 5891 5890 5890 5891 5890 5890
5879 5879 5880 5880 5881 5881 5882 5883 5884 5885 5886 5887 5887 5888 5889 5889 5889 5890 5891 5892 5892 5892 5893 5893 5893 5893 5893 5892 5892 5892 5892 5892 5892 5892 5891 5891 5891 5891 5891 5890 5891 5890 5890
5879 5880 5880 5880 5881 5882 5883 5884 5885 5886 5887 5888 5889 5889 5890 5890 5890 5891 5891 5892 5893 5893 5893 5893 5893 5893 5893 5893 5893 5892 5892 5892 5892 5892 5891 5891 5891 5891 5890 5890 5890 5890 5890
5880 5880 5880 5881 5882 5883 5883 5884 5886 5886 5888 5889 5889 5890 5890 5891 5891 5891 5892 5893 5893 5893 5894 5894 5894 5894 5893 5893 5893 5893 5892 5892 5892 5891 5891 5891 5891 5891 5890 5890 5890 5890 5889
5880 5880 5880 5880 5882 5883 5884 5885 5886 5887 5888 5889 5890 5891 5891 5891 5892 5892 5892 5893 5893 5894 5894 5894 5894 5894 5894 5893 5893 5893 5892 5892 5892 5892 5891 5891 5891 5890 5890 5889 5889 5889 5889
5881 5880 5880 5881 5882 5884 5885 5886 5888 5888 5889 5890 5890 5891 5892 5892 5892 5893 5893 5893 5893 5894 5894 5894 5894 5894 5894 5893 5893 5892 5892 5892 5891 5891 5891 5890 5890 5890 5889 5889 5889 5889 5888
5882 5881 5882 5882 5883 5885 5886 5888 5889 5889 5890 5891 5891 5892 5892 5892 5893 5893 5893 5893 5894 5894 5894 5894 5894 5893 5893 5893 5892 5892 5891 5891 5890 5890 5890 5890 5890 5889 5889 5889 5888 5888 5887
5883 5883 5883 5884 5885 5886 5887 5889 5890 5890 5891 5892 5892 5893 5893 5893 5893 5893 5893 5894 5894 5894 5894 5894 5893 5893 5892 5892 5891 5890 5890 5889 5889 5889 5889 5889 5889 5888 5888 5888 5887 5887 5886
5886 5885 5885 5886 5887 5888 5889 5890 5891 5892 5892 5893 5893 5893 5894 5894 5894 5893 5894 5894 5894 5894 5894 5893 5893 5893 5892 5891 5891 5890 5889 5888 5888 5888 5888 5888 5888 5888 5887 5886 5886 5885 5885
5889 5888 5888 5889 5890 5891 5891 5892 5892 5893 5893 5894 5894 5894 5895 5895 5895 5894 5894 5894 5894 5894 5893 5893 5893 5892 5891 5891 5890 5889 5888 5887 5887 5887 5887 5887 5887 5887 5886 5885 5885 5884 5883
5892 5892 5892 5892 5892 5893 5893 5894 5894 5894 5895 5895 5895 5895 5895 5895 5895 5895 5895 5894 5894 5894 5893 5893 5892 5891 5891 5890 5889 5889 5887 5886 5886 5886 5886 5886 5886 5886 5885 5884 5883 5882 5881
5895 5894 5894 5895 5895 5895 5895 5895 5895 5896 5896 5896 5896 5896 5896 5896 5896 5896 5895 5895 5895 5894 5894 5893 5892 5892 5891 5890 5890 5889 5887 5886 5886 5886 5885 5885 5885 5885 5884 5883 5882 5880 5879
5897 5897 5897 5897 5897 5897 5897 5897 5897 5897 5897 5897 5897 5897 5897 5896 5896 5896 5896 5896 5895 5895 5894 5894 5893 5892 5891 5891 5890 5889 5888 5887 5886 5886 5886 5885 5885 5884 5883 5882 5880 5878 5877
5900 5899 5899 5899 5899 5899 5899 5899 5899 5899 5899 5899 5898 5898 5897 5897 5897 5896 5897 5896 5896 5895 5894 5894 5893 5893 5892 5891 5890 5889 5888 5888 5887 5886 5886 5885 5884 5883 5882 5881 5879 5877 5876
5902 5902 5901 5901 5901 5901 5901 5901 5900 5900 5900 5900 5899 5899 5898 5898 5898 5897 5897 5897 5896 5896 5895 5894 5894 5893 5893 5892 5891 5890 5889 5888 5887 5887 5886 5885 5884 5883 5881 5880 5878 5876 5875
5904 5904 5903 5903 5903 5903 5902 5902 5902 5901 5901 5901 5900 5900 5899 5899 5899 5898 5898 5898 5897 5897 5896 5895 5894 5894 5893 5892 5892 5891 5890 5889 5888 5887 5886 5885 5883 5882 5880 5879 5877 5876 5874
5906 5906 5905 5905 5905 5904 5904 5903 5903 5903 5902 5902 5901 5901 5900 5900 5899 5899 5899 5898 5898 5897 5896 5896 5895 5894 5894 5893 5892 5891 5890 5889 5888 5887 5886 5885 5883 5882 5880 5878 5876 5875 5874
5908 5908 5907 5907 5906 5905 5905 5905 5904 5904 5903 5903 5902 5902 5901 5901 5900 5900 5899 5899 5898 5897 5897 5896 5896 5895 5894 5893 5892 5891 5890 5889 5888 5887 5885 5884 5883 5881 5879 5877 5876 5874 5873
5910 5909 5909 5908 5907 5907 5906 5906 5905 5905 5904 5904 5903 5903 5902 5901 5901 5900 5900 5899 5898 5898 5897 5897 5896 5895 5894 5893 5893 5892 5890 5890 5888 5886 5885 5884 5882 5880 5878 5876 5875 5873 5871
5912 5911 5910 5909 5909 5908 5907 5907 5907 5906 5906 5905 5904 5904 5903 5902 5901 5901 5900 5900 5899 5899 5898 5897 5897 5896 5895 5893 5892 5892 5890 5889 5888 5886 5884 5883 5881 5879 5878 5876 5874 5872 5870
5913 5912 5911 5910 5910 5909 5909 5908 5908 5907 5906 5906 5905 5904 5903 5903 5902 5901 5901 5900 5899 5899 5898 5898 5897 5896 5895 5893 5892 5891 5890 5889 5887 5886 5884 5882 5880 5878 5877 5874 5872 5870 5868
5914 5913 5912 5911 5911 5910 5910 5909 5908 5907 5907 5906 5905 5905 5904 5903 5902 5901 5901 5900 5900 5899 5899 5898 5897 5895 5894 5893 5892 5890 5889 5888 5886 5885 5883 5881 5879 5877 5875 5873 5871 5869 5867
5915 5914 5913 5912 5912 5911 5910 5909 5909 5908 5907 5907 5906 5905 5904 5904 5903 5902 5901 5901 5900 5899 5898 5898 5896 5895 5894 5892 5891 5890 5888 5886 5885 5883 5881 5879 5877 5875 5873 5871 5869 5867 5865